Time,TemperatureF,DewpointF,PressureIn,WindDirection,WindDirectionDegrees,WindSpeedMPH,WindSpeedGustMPH,Humidity,HourlyPrecipIn,Conditions,Clouds,dailyrainin,SoftwareType,DateUTC
2013-06-26 00:12:00,74.0,65.0,-100.00,South,184,4.0,8.0,72,0.00,,,0.00,,2013-06-26 04:12:00,
2013-06-26 00:33:00,74.0,65.0,-100.00,SW,222,1.0,3.0,75,0.00,,,0.00,,2013-06-26 04:33:00,
2013-06-26 00:43:00,72.0,65.0,-100.00,South,175,3.0,4.0,78,0.00,,,0.00,,2013-06-26 04:43:00,
2013-06-26 00:53:00,72.0,65.0,-100.00,South,175,3.0,4.0,78,0.00,,,0.00,,2013-06-26 04:53:00,
2013-06-26 01:02:00,72.0,65.0,-100.00,South,175,3.0,4.0,78,0.00,,,0.00,,2013-06-26 05:02:00,
2013-06-26 01:11:00,73.0,65.0,-100.00,SW,216,2.0,4.0,75,0.00,,,0.00,,2013-06-26 05:11:00,
2013-06-26 01:34:00,72.0,65.0,-100.00,SSW,193,0.0,1.0,78,0.00,,,0.00,,2013-06-26 05:34:00,
2013-06-26 01:43:00,72.0,65.0,-100.00,SSW,193,0.0,1.0,78,0.00,,,0.00,,2013-06-26 05:43:00,
2013-06-26 02:02:00,71.0,65.0,-100.00,South,185,3.0,5.0,80,0.00,,,0.00,,2013-06-26 06:02:00,
2013-06-26 02:12:00,71.0,65.0,-100.00,South,185,3.0,5.0,80,0.00,,,0.00,,2013-06-26 06:12:00,
2013-06-26 02:22:00,71.0,65.0,-100.00,South,185,3.0,5.0,80,0.00,,,0.00,,2013-06-26 06:22:00,
2013-06-26 02:34:00,71.0,65.0,-100.00,South,185,4.0,5.0,81,0.00,,,0.00,,2013-06-26 06:34:00,
2013-06-26 02:44:00,71.0,65.0,-100.00,SSW,192,4.0,5.0,81,0.00,,,0.00,,2013-06-26 06:44:00,
2013-06-26 02:53:00,71.0,65.0,-100.00,SSW,192,4.0,5.0,81,0.00,,,0.00,,2013-06-26 06:53:00,
2013-06-26 03:01:00,71.0,65.0,-100.00,SSW,192,4.0,5.0,81,0.00,,,0.00,,2013-06-26 07:01:00,
2013-06-26 03:11:00,70.0,64.0,-100.00,South,172,4.0,5.0,82,0.00,,,0.00,,2013-06-26 07:11:00,
2013-06-26 03:33:00,70.0,64.0,-100.00,South,188,3.0,4.0,82,0.00,,,0.00,,2013-06-26 07:33:00,
2013-06-26 03:43:00,70.0,64.0,-100.00,South,172,4.0,5.0,82,0.00,,,0.00,,2013-06-26 07:43:00,
2013-06-26 03:53:00,70.0,64.0,-100.00,South,172,4.0,5.0,82,0.00,,,0.00,,2013-06-26 07:53:00,
2013-06-26 04:01:00,70.0,64.0,-100.00,South,172,4.0,5.0,82,0.00,,,0.00,,2013-06-26 08:01:00,
2013-06-26 04:33:00,67.0,64.0,-100.00,SSW,210,0.0,2.0,89,0.00,,,0.00,,2013-06-26 08:33:00,
2013-06-26 04:43:00,67.0,64.0,-100.00,SSW,210,0.0,2.0,89,0.00,,,0.00,,2013-06-26 08:43:00,
2013-06-26 05:01:00,68.0,64.0,-100.00,South,185,3.0,4.0,87,0.00,,,0.00,,2013-06-26 09:01:00,
2013-06-26 05:11:00,68.0,64.0,-100.00,South,185,3.0,4.0,87,0.00,,,0.00,,2013-06-26 09:11:00,
2013-06-26 05:43:00,69.0,64.0,-100.00,SSW,192,6.0,7.0,87,0.00,,,0.00,,2013-06-26 09:43:00,
2013-06-26 06:01:00,68.0,64.0,-100.00,South,188,4.0,5.0,87,0.00,,,0.00,,2013-06-26 10:01:00,
2013-06-26 06:12:00,68.0,64.0,-100.00,South,188,4.0,5.0,87,0.00,,,0.00,,2013-06-26 10:12:00,
2013-06-26 06:22:00,68.0,64.0,-100.00,South,188,4.0,5.0,87,0.00,,,0.00,,2013-06-26 10:22:00,
2013-06-26 06:53:00,67.0,64.0,-100.00,SSW,196,3.0,4.0,89,0.00,,,0.00,,2013-06-26 10:53:00,
2013-06-26 07:02:00,68.0,64.0,-100.00,South,189,4.0,5.0,88,0.00,,,0.00,,2013-06-26 11:02:00,
2013-06-26 07:12:00,68.0,64.0,-100.00,South,189,4.0,5.0,88,0.00,,,0.00,,2013-06-26 11:12:00,
2013-06-26 07:23:00,68.0,64.0,-100.00,South,189,4.0,5.0,88,0.00,,,0.00,,2013-06-26 11:23:00,
2013-06-26 07:33:00,69.0,65.0,-100.00,SSW,209,3.0,4.0,86,0.00,,,0.00,,2013-06-26 11:33:00,
2013-06-26 07:44:00,70.0,65.0,-100.00,South,186,5.0,7.0,85,0.00,,,0.00,,2013-06-26 11:44:00,
2013-06-26 07:52:00,70.0,65.0,-100.00,South,186,5.0,7.0,85,0.00,,,0.00,,2013-06-26 11:52:00,
2013-06-26 08:02:00,71.0,65.0,-100.00,South,171,3.0,5.0,83,0.00,,,0.00,,2013-06-26 12:02:00,
2013-06-26 08:12:00,71.0,65.0,-100.00,South,171,3.0,5.0,83,0.00,,,0.00,,2013-06-26 12:12:00,
2013-06-26 08:22:00,71.0,65.0,-100.00,South,171,3.0,5.0,83,0.00,,,0.00,,2013-06-26 12:22:00,
2013-06-26 08:34:00,72.0,65.0,-100.00,SSW,195,4.0,6.0,78,0.00,,,0.00,,2013-06-26 12:34:00,
2013-06-26 08:43:00,72.0,65.0,-100.00,SSW,195,4.0,6.0,78,0.00,,,0.00,,2013-06-26 12:43:00,
2013-06-26 08:52:00,73.0,66.0,-100.00,South,184,7.0,9.0,80,0.00,,,0.00,,2013-06-26 12:52:00,
2013-06-26 09:02:00,74.0,66.0,-100.00,South,176,5.0,7.0,78,0.00,,,0.00,,2013-06-26 13:02:00,
2013-06-26 09:43:00,75.0,67.0,-100.00,South,169,4.0,6.0,77,0.00,,,0.00,,2013-06-26 13:43:00,
2013-06-26 10:02:00,76.0,67.0,-100.00,SSE,164,6.0,9.0,74,0.00,,,0.00,,2013-06-26 14:02:00,
2013-06-26 10:12:00,76.0,67.0,-100.00,SSE,164,6.0,9.0,74,0.00,,,0.00,,2013-06-26 14:12:00,
2013-06-26 10:24:00,76.0,67.0,-100.00,SSE,164,6.0,9.0,74,0.00,,,0.00,,2013-06-26 14:24:00,
2013-06-26 10:42:00,77.0,68.0,-100.00,South,169,6.0,8.0,74,0.00,,,0.00,,2013-06-26 14:42:00,
2013-06-26 10:51:00,81.0,67.0,-100.00,NW,320,9.0,13.0,61,0.00,,,0.00,,2013-06-26 14:51:00,
2013-06-26 10:53:00,78.0,68.0,-100.00,South,188,6.0,8.0,69,0.00,,,0.00,,2013-06-26 14:53:00,
2013-06-26 11:02:00,81.0,69.0,-100.00,South,188,2.0,4.0,68,0.00,,,0.00,,2013-06-26 15:02:00,
2013-06-26 11:12:00,81.0,69.0,-100.00,South,188,2.0,4.0,68,0.00,,,0.00,,2013-06-26 15:12:00,
2013-06-26 11:22:00,81.0,69.0,-100.00,South,188,2.0,4.0,68,0.00,,,0.00,,2013-06-26 15:22:00,
2013-06-26 11:30:00,82.0,67.0,-100.00,NNW,335,5.0,9.0,60,0.00,,,0.00,,2013-06-26 15:30:00,
2013-06-26 11:34:00,81.0,67.0,-100.00,NW,320,9.0,13.0,61,0.00,,,0.00,,2013-06-26 15:34:00,
2013-06-26 11:44:00,81.0,67.0,-100.00,NW,320,9.0,13.0,61,0.00,,,0.00,,2013-06-26 15:44:00,
2013-06-26 12:11:00,82.0,67.0,-100.00,NNW,335,5.0,9.0,60,0.00,,,0.00,,2013-06-26 16:11:00,
2013-06-26 12:22:00,82.0,67.0,-100.00,NNW,335,5.0,9.0,60,0.00,,,0.00,,2013-06-26 16:22:00,
2013-06-26 12:30:00,83.0,67.0,-100.00,SSW,199,3.0,5.0,58,0.00,,,0.00,,2013-06-26 16:30:00,
2013-06-26 13:02:00,83.0,67.0,-100.00,SSW,199,3.0,5.0,58,0.00,,,0.00,,2013-06-26 17:02:00,
2013-06-26 13:11:00,83.0,67.0,-100.00,SSW,199,3.0,5.0,58,0.00,,,0.00,,2013-06-26 17:11:00,
2013-06-26 13:24:00,83.0,67.0,-100.00,SSW,199,3.0,5.0,58,0.00,,,0.00,,2013-06-26 17:24:00,
2013-06-26 13:43:00,85.0,68.0,-100.00,NNW,336,1.0,2.0,57,0.00,,,0.00,,2013-06-26 17:43:00,
2013-06-26 14:01:00,86.0,68.0,-100.00,SSW,200,3.0,6.0,56,0.00,,,0.00,,2013-06-26 18:01:00,
2013-06-26 14:10:00,85.0,67.0,-100.00,NNW,336,4.0,6.0,54,0.00,,,0.00,,2013-06-26 18:10:00,
2013-06-26 14:12:00,86.0,68.0,-100.00,SSW,200,3.0,6.0,56,0.00,,,0.00,,2013-06-26 18:12:00,
2013-06-26 14:22:00,86.0,68.0,-100.00,SSW,200,3.0,6.0,56,0.00,,,0.00,,2013-06-26 18:22:00,
2013-06-26 14:34:00,87.0,66.0,-100.00,North,4,3.0,6.0,51,0.00,,,0.00,,2013-06-26 18:34:00,
2013-06-26 14:43:00,87.0,66.0,-100.00,North,4,3.0,6.0,51,0.00,,,0.00,,2013-06-26 18:43:00,
2013-06-26 14:52:00,85.0,67.0,-100.00,NNW,336,4.0,6.0,54,0.00,,,0.00,,2013-06-26 18:52:00,
2013-06-26 15:02:00,85.0,67.0,-100.00,NNW,336,4.0,6.0,54,0.00,,,0.00,,2013-06-26 19:02:00,
2013-06-26 16:43:00,68.0,67.0,-100.00,South,171,6.0,8.0,96,0.00,,,0.34,,2013-06-26 20:43:00,
2013-06-26 16:53:00,67.0,66.0,-100.00,SE,127,2.0,2.0,96,0.09,,,0.35,,2013-06-26 20:53:00,
2013-06-26 17:12:00,68.0,67.0,-100.00,SW,219,4.0,5.0,96,0.00,,,0.36,,2013-06-26 21:12:00,
2013-06-26 17:23:00,68.0,67.0,-100.00,SW,219,4.0,5.0,96,0.00,,,0.36,,2013-06-26 21:23:00,
2013-06-26 17:30:00,68.0,66.0,-100.00,South,174,5.0,7.0,95,0.00,,,0.42,,2013-06-26 21:30:00,
2013-06-26 17:33:00,67.0,66.0,-100.00,South,185,10.0,12.0,96,0.14,,,0.39,,2013-06-26 21:33:00,
2013-06-26 17:43:00,67.0,66.0,-100.00,South,191,5.0,8.0,96,0.03,,,0.42,,2013-06-26 21:43:00,
2013-06-26 18:01:00,68.0,66.0,-100.00,South,174,5.0,7.0,95,0.00,,,0.42,,2013-06-26 22:01:00,
2013-06-26 18:11:00,68.0,66.0,-100.00,South,174,5.0,7.0,95,0.00,,,0.42,,2013-06-26 22:11:00,
2013-06-26 18:22:00,68.0,66.0,-100.00,South,174,5.0,7.0,95,0.00,,,0.42,,2013-06-26 22:22:00,
2013-06-26 18:52:00,68.0,67.0,-100.00,SSE,168,7.0,9.0,95,0.00,,,0.42,,2013-06-26 22:52:00,
2013-06-26 19:02:00,69.0,67.0,-100.00,South,184,7.0,9.0,95,0.00,,,0.42,,2013-06-26 23:02:00,
2013-06-26 19:12:00,69.0,67.0,-100.00,South,184,7.0,9.0,95,0.00,,,0.42,,2013-06-26 23:12:00,
2013-06-26 19:22:00,69.0,67.0,-100.00,South,184,7.0,9.0,95,0.00,,,0.42,,2013-06-26 23:22:00,
2013-06-26 19:53:00,70.0,67.0,-100.00,South,171,5.0,6.0,92,0.00,,,0.42,,2013-06-26 23:53:00,
2013-06-26 20:22:00,70.0,67.0,-100.00,South,174,8.0,9.0,92,0.00,,,0.42,,2013-06-27 00:22:00,
2013-06-26 20:33:00,70.0,67.0,-100.00,South,179,7.0,9.0,90,0.00,,,0.42,,2013-06-27 00:33:00,
2013-06-26 20:43:00,70.0,67.0,-100.00,South,179,7.0,9.0,90,0.00,,,0.42,,2013-06-27 00:43:00,
2013-06-26 20:53:00,71.0,67.0,-100.00,SSE,152,4.0,4.0,89,0.00,,,0.42,,2013-06-27 00:53:00,
2013-06-26 21:01:00,70.0,67.0,-100.00,South,172,3.0,4.0,90,0.00,,,0.42,,2013-06-27 01:01:00,
2013-06-26 21:11:00,70.0,67.0,-100.00,South,172,3.0,4.0,90,0.00,,,0.42,,2013-06-27 01:11:00,
2013-06-26 21:32:00,70.0,67.0,-100.00,SSW,193,3.0,5.0,89,0.00,,,0.42,,2013-06-27 01:32:00,
2013-06-26 21:43:00,70.0,67.0,-100.00,South,182,4.0,5.0,89,0.00,,,0.42,,2013-06-27 01:43:00,
2013-06-26 22:01:00,70.0,67.0,-100.00,SW,219,2.0,3.0,89,0.00,,,0.42,,2013-06-27 02:01:00,
2013-06-26 22:11:00,70.0,67.0,-100.00,SW,219,2.0,3.0,89,0.00,,,0.42,,2013-06-27 02:11:00,
2013-06-26 22:22:00,70.0,67.0,-100.00,SW,219,2.0,3.0,89,0.00,,,0.42,,2013-06-27 02:22:00,
2013-06-26 22:32:00,70.0,67.0,-100.00,SSW,198,3.0,5.0,90,0.00,,,0.42,,2013-06-27 02:32:00,
2013-06-26 22:42:00,70.0,67.0,-100.00,SSW,198,3.0,5.0,90,0.00,,,0.42,,2013-06-27 02:42:00,
2013-06-26 22:52:00,69.0,67.0,-100.00,SSW,196,4.0,5.0,91,0.00,,,0.42,,2013-06-27 02:52:00,
2013-06-26 23:02:00,69.0,67.0,-100.00,South,191,7.0,9.0,92,0.00,,,0.42,,2013-06-27 03:02:00,
2013-06-26 23:11:00,69.0,67.0,-100.00,South,191,7.0,9.0,92,0.00,,,0.42,,2013-06-27 03:11:00,
2013-06-26 23:22:00,69.0,67.0,-100.00,South,191,7.0,9.0,92,0.00,,,0.42,,2013-06-27 03:22:00,
2013-06-26 23:31:00,69.0,67.0,-100.00,SSW,195,4.0,8.0,93,0.00,,,0.42,,2013-06-27 03:31:00,
2013-06-26 23:42:00,69.0,67.0,-100.00,SSW,202,4.0,6.0,93,0.00,,,0.42,,2013-06-27 03:42:00,
2013-06-26 23:52:00,69.0,67.0,-100.00,SSW,202,4.0,6.0,93,0.00,,,0.42,,2013-06-27 03:52:00,